Home   Weather   Miami   Past weeks

Flag for USA Past Weather in Miami, Florida, USA — Yesterday and Last 2 Weeks

Now
78 °F

Broken clouds.


Feels Like: 80 °F
Forecast: 74 / 80 °F
Wind: 14 mph from Southeast

Location: Miami International Airport

Current Time: Dec 4, 2016 at 3:27:17 pm

Latest Report: Dec 4, 2016 at 2:53 pm


Visibility: 10 mi

Pressure: 30.01 "Hg

Humidity: 69%

Dew Point: 67 °F

Location of MiamiLocation

Past Weather in Miami — Graph

°F

Miami Temperature Yesterday

Maximum temperature yesterday: 80 °F (at 11:53 am)
Minimum temperature yesterday: 73 °F (at 6:53 am)
Average temperature yesterday: 76 °F

High & Low Weather Summary for the Past Weeks

 TemperatureHumidityPressure
High83 °F (Dec 1, 11:53 am)100% (Dec 2, 2:53 am)30.22 "Hg (Dec 2, 2:53 am)
Low58 °F (Nov 21, 6:53 am)29% (Nov 21, 7:53 pm)29.93 "Hg (Dec 1, 3:53 pm)
Average74 °F69%30.06 "Hg
* Reported Nov 19 1:53 pm — Dec 4 1:53 pm, Miami, Weather by CustomWeather, © 2016

Note: Actual official high and low records may vary slightly from our data, if they occured in-between our weather recording intervals... More about our weather records

Advertising

Miami Weather History for the Previous 24 Hours

Scroll right to see more
 ConditionsComfort  
Time TempWeatherWind HumidityBarometerVisibility
1:53 pm
Sun, Dec 4
80 °FBroken clouds.15 mph64%30.02 "Hg10 mi
12:53 pm81 °FBroken clouds.16 mph65%30.04 "Hg10 mi
11:53 am78 °FBroken clouds.14 mph71%30.06 "Hg10 mi
10:53 am79 °FPartly sunny.15 mph69%30.09 "Hg10 mi
9:53 am78 °FPartly sunny.14 mph69%30.09 "Hg10 mi
8:53 am76 °FPartly sunny.15 mph74%30.07 "Hg10 mi
7:53 am75 °FPartly sunny.9 mph76%30.05 "Hg10 mi
6:53 am74 °FPartly sunny.12 mph76%30.05 "Hg10 mi
5:53 am75 °FPassing clouds.12 mph76%30.04 "Hg10 mi
4:53 am74 °FPassing clouds.10 mph79%30.02 "Hg10 mi
3:53 am73 °FPassing clouds.8 mph79%30.03 "Hg10 mi
2:53 am74 °FPassing clouds.9 mph76%30.03 "Hg10 mi
1:53 am73 °FPassing clouds.10 mph76%30.05 "Hg10 mi
12:53 am75 °FPassing clouds.13 mph74%30.06 "Hg10 mi
11:53 pm
Sat, Dec 3
74 °FPartly cloudy.8 mph76%30.07 "Hg10 mi
10:53 pm75 °FPassing clouds.14 mph71%30.09 "Hg10 mi
9:53 pm75 °FPassing clouds.9 mph71%30.09 "Hg10 mi
8:53 pm75 °FPassing clouds.8 mph71%30.08 "Hg10 mi
7:53 pm74 °FPassing clouds.9 mph71%30.07 "Hg10 mi
6:53 pm74 °FPassing clouds.9 mph71%30.06 "Hg10 mi
5:53 pm75 °FPassing clouds.10 mph69%30.05 "Hg10 mi
4:53 pm76 °FPassing clouds.10 mph67%30.04 "Hg10 mi
3:53 pm77 °FBroken clouds.10 mph64%30.04 "Hg10 mi
Weather by CustomWeather, © 2016

See weather overviewHow to use our weather pages